This is the latest recevied weather packets stored in our database for station/object SP7QPD-1. If no packets are shown the sender has not sent any weather packets the latest 10 day(s).
| Time | Temp. | Humidity | Pressure | Rain* | Wind** | Luminosity | Snow |
|---|---|---|---|---|---|---|---|
| 1778142219 | 15° C | 60% | 1006.6 hPa | 0 mm | - | - | - |
| 1778141619 | 15.56° C | 58% | 1006.5 hPa | 0 mm | - | - | - |
| 1778141019 | 15.56° C | 57% | 1006.4 hPa | 0 mm | - | - | - |
| 1778140419 | 15.56° C | 56% | 1006.3 hPa | 0 mm | - | - | - |
| 1778139819 | 15° C | 56% | 1006.2 hPa | 0 mm | - | - | - |
| 1778139219 | 15° C | 56% | 1006.1 hPa | 0 mm | - | - | - |
| 1778138619 | 15° C | 58% | 1006 hPa | 0 mm | - | - | - |
| 1778138019 | 15.56° C | 60% | 1005.9 hPa | 0 mm | - | - | - |
| 1778137419 | 15.56° C | 60% | 1005.8 hPa | 0 mm | - | - | - |
| 1778136818 | 15.56° C | 60% | 1005.6 hPa | 0 mm | - | - | - |
| 1778136218 | 15.56° C | 60% | 1005.6 hPa | 0 mm | - | - | - |
| 1778135618 | 15.56° C | 60% | 1005.5 hPa | 0 mm | - | - | - |
| 1778135018 | 15.56° C | 61% | 1005.4 hPa | 0 mm | - | - | - |
| 1778134418 | 15.56° C | 59% | 1005.3 hPa | 0 mm | - | - | - |
| 1778133818 | 15.56° C | 58% | 1005.2 hPa | 0 mm | - | - | - |
| 1778133218 | 15° C | 56% | 1005.1 hPa | 0 mm | - | - | - |
| 1778132618 | 15° C | 51% | 1005.1 hPa | 0 mm | - | - | - |
| 1778132018 | 15° C | 48% | 1005 hPa | 0 mm | - | - | - |
| 1778131418 | 15° C | 45% | 1004.8 hPa | 0 mm | - | - | - |
| 1778130818 | 14.44° C | 45% | 1004.9 hPa | 0 mm | - | - | - |
| 1778130217 | 14.44° C | 45% | 1004.9 hPa | 0 mm | - | - | - |
| 1778129618 | 14.44° C | 46% | 1005 hPa | 0 mm | - | - | - |
| 1778129017 | 13.89° C | 50% | 1004.8 hPa | 0 mm | - | - | - |
| 1778128417 | 13.89° C | 49% | 1004.7 hPa | 0 mm | - | - | - |
| 1778127817 | 13.89° C | 49% | 1004.5 hPa | 0 mm | - | - | - |
* Rain latest hour (hover to see other rain measurements)
** Current wind speed in m/s (hover to see current wind gust speed)